Date String (YYYY-MM-DD hh:mm:ss) UTC,Instrument flags,absolute air pressure of the measurement (hPa),sample flow rate (lpm),inlet stack bypass flow (lpm),air temperature of the measurement (°C),ambient temperature measured by the external sensor (°C),aerosol sample conditioner tube jacket temperature (°C),OPC LED temperature (°C),internal box temperature (°C),relative humidity of the measurement (%),span deviation,mass concentration of particles derived from Lorenz-Mie calculation of OPC scattering (μg/m³),mass concentration of particles derived from Lorenz-Mie calculation of OPC scattering (μg/m³),mass concentration of particles derived from Lorenz-Mie calculation of OPC scattering (μg/m³)
DateTimeUTC,F1_M11,P_M11,Q1_M11,Q2_M11,T1_M11,T2_M11,T3_M11,T4_M11,T5_M11,U1_M11,ZSPAN_M11,X0_M11,X2_M11,X1_M11
2024-02-24 05:00:00,SystemResetWarning,0830.8,4.99,000.00,020.9,019.9,000.0,029.3,022.6,08.8,0000.0,0001.27,0000.75,0000.50
2024-02-24 05:01:00,SystemResetWarning,0830.8,5.01,000.00,020.9,019.9,000.0,029.3,022.6,09.0,0000.0,0001.21,0000.72,0000.50
2024-02-24 05:02:00,SystemResetWarning,0830.8,5.01,000.00,020.8,019.9,000.0,029.3,022.5,09.1,0000.0,0001.44,0000.71,0000.51
2024-02-24 05:03:00,SystemResetWarning,0830.8,5.00,000.00,020.8,019.9,000.0,029.3,022.5,09.2,0000.0,0002.21,0000.72,0000.51
2024-02-24 05:04:00,SystemResetWarning,0830.7,4.99,000.00,020.8,019.9,000.0,029.3,022.5,09.2,0000.0,0002.20,0000.72,0000.52
2024-02-24 05:05:00,SystemResetWarning,0830.7,4.99,000.00,020.8,019.9,000.0,029.3,022.5,09.1,0000.0,0002.22,0000.73,0000.52
2024-02-24 05:06:00,SystemResetWarning,0830.7,5.00,000.00,020.8,019.8,000.0,029.2,022.5,09.1,0000.0,0002.25,0000.76,0000.53
2024-02-24 05:07:00,SystemResetWarning,0830.7,5.01,000.00,020.8,019.8,000.0,029.2,022.5,09.2,0000.0,0002.18,0000.74,0000.53
2024-02-24 05:08:00,SystemResetWarning,0830.7,5.00,000.00,020.7,019.8,000.0,029.2,022.4,09.2,0000.0,0002.16,0000.73,0000.53
2024-02-24 05:09:00,SystemResetWarning,0830.7,5.00,000.00,020.7,019.8,000.0,029.2,022.4,09.3,0000.0,0002.06,0000.69,0000.53
2024-02-24 05:10:00,SystemResetWarning,0830.7,5.01,000.00,020.7,019.7,000.0,029.2,022.4,09.1,0000.0,0002.02,0000.67,0000.52
2024-02-24 05:11:00,SystemResetWarning,0830.7,5.00,000.00,020.7,019.7,000.0,029.2,022.4,09.3,0000.0,0002.04,0000.67,0000.52
2024-02-24 05:12:00,SystemResetWarning,0830.7,5.00,000.00,020.7,019.7,000.0,029.2,022.4,09.6,0000.0,0002.03,0000.67,0000.52
2024-02-24 05:13:00,SystemResetWarning,0830.6,4.99,000.00,020.6,019.7,000.0,029.1,022.3,09.7,0000.0,0002.14,0000.67,0000.51
2024-02-24 05:14:00,SystemResetWarning,0830.6,4.99,000.00,020.6,019.7,000.0,029.1,022.3,09.7,0000.0,0002.34,0000.65,0000.50
2024-02-24 05:15:00,SystemResetWarning,0830.6,5.00,000.00,020.6,019.7,000.0,029.1,022.3,09.7,0000.0,0002.27,0000.62,0000.49
2024-02-24 05:16:00,SystemResetWarning,0830.6,5.01,000.00,020.6,019.6,000.0,029.1,022.2,09.8,0000.0,0002.22,0000.60,0000.50
2024-02-24 05:17:00,SystemResetWarning,0830.4,5.01,000.00,020.6,019.6,000.0,029.1,022.2,09.9,0000.0,0002.17,0000.58,0000.50
2024-02-24 05:18:00,SystemResetWarning,0830.5,5.00,000.00,020.5,019.6,000.0,029.0,022.2,10.0,0000.0,0002.17,0000.58,0000.50
2024-02-24 05:19:00,SystemResetWarning,0830.5,4.99,000.00,020.5,019.6,000.0,029.0,022.2,10.0,0000.0,0002.14,0000.58,0000.50
2024-02-24 05:20:00,SystemResetWarning,0830.6,5.00,000.00,020.5,019.6,000.0,029.0,022.1,09.8,0000.0,0002.13,0000.57,0000.50
2024-02-24 05:21:00,SystemResetWarning,0830.5,4.99,000.00,020.5,019.5,000.0,029.0,022.1,09.8,0000.0,0002.35,0000.57,0000.50
2024-02-24 05:22:00,SystemResetWarning,0830.5,5.01,000.00,020.5,019.5,000.0,029.0,022.1,09.9,0000.0,0002.53,0000.57,0000.50
2024-02-24 05:23:00,SystemResetWarning,0830.7,4.99,000.00,020.4,019.5,000.0,029.0,022.1,10.0,0000.0,0002.51,0000.57,0000.50
2024-02-24 05:24:00,SystemResetWarning,0830.5,5.00,000.00,020.4,019.5,000.0,028.9,022.1,09.9,0000.0,0002.55,0000.57,0000.51
2024-02-24 05:25:00,SystemResetWarning,0830.5,5.00,000.00,020.4,019.5,000.0,028.9,022.0,09.6,0000.0,0001.97,0000.57,0000.51
2024-02-24 05:26:00,SystemResetWarning,0830.5,5.00,000.00,020.4,019.4,000.0,028.9,022.0,09.7,0000.0,0002.15,0000.58,0000.51
2024-02-24 05:27:00,SystemResetWarning,0830.4,5.01,000.00,020.3,019.4,000.0,028.9,022.0,09.3,0000.0,0002.22,0000.61,0000.50
2024-02-24 05:28:00,SystemResetWarning,0830.4,5.01,000.00,020.3,019.4,000.0,028.9,022.0,09.2,0000.0,0002.32,0000.63,0000.50
2024-02-24 05:29:00,SystemResetWarning,0830.5,4.99,000.00,020.3,019.4,000.0,028.9,022.0,09.1,0000.0,0002.32,0000.65,0000.51
2024-02-24 05:30:00,SystemResetWarning,0830.5,4.99,000.00,020.3,019.3,000.0,028.8,021.9,09.2,0000.0,0002.33,0000.65,0000.51
2024-02-24 05:31:00,SystemResetWarning,0830.4,5.00,000.00,020.3,019.3,000.0,028.8,021.9,09.3,0000.0,0002.42,0000.69,0000.52
2024-02-24 05:32:00,SystemResetWarning,0830.4,4.99,000.00,020.2,019.3,000.0,028.8,021.9,09.3,0000.0,0002.50,0000.73,0000.52
2024-02-24 05:33:00,SystemResetWarning,0830.4,5.00,000.00,020.2,019.3,000.0,028.8,021.9,09.3,0000.0,0002.13,0000.73,0000.52
2024-02-24 05:34:00,SystemResetWarning,0830.4,5.00,000.00,020.2,019.3,000.0,028.8,021.9,09.5,0000.0,0002.17,0000.74,0000.53
2024-02-24 05:35:00,SystemResetWarning,0830.5,5.01,000.00,020.2,019.3,000.0,028.8,021.9,09.4,0000.0,0002.25,0000.73,0000.52
2024-02-24 05:36:00,SystemResetWarning,0830.4,5.00,000.00,020.2,019.2,000.0,028.7,021.9,09.3,0000.0,0002.58,0000.75,0000.52
2024-02-24 05:37:00,SystemResetWarning,0830.4,5.00,000.00,020.2,019.2,000.0,028.7,021.8,09.3,0000.0,0002.25,0000.76,0000.52
2024-02-24 05:38:00,SystemResetWarning,0830.5,5.00,000.00,020.2,019.2,000.0,028.7,021.8,09.3,0000.0,0002.24,0000.76,0000.51
2024-02-24 05:39:00,SystemResetWarning,0830.4,4.99,000.00,020.1,019.2,000.0,028.7,021.8,09.2,0000.0,0002.17,0000.74,0000.51
2024-02-24 05:40:00,SystemResetWarning,0830.4,5.00,000.00,020.1,019.2,000.0,028.7,021.8,09.0,0000.0,0002.16,0000.73,0000.51
2024-02-24 05:41:00,SystemResetWarning,0830.4,5.00,000.00,020.1,019.2,000.0,028.7,021.8,08.9,0000.0,0002.21,0000.75,0000.52
2024-02-24 05:42:00,SystemResetWarning,0830.3,4.99,000.00,020.1,019.2,000.0,028.6,021.8,08.8,0000.0,0002.18,0000.73,0000.51
2024-02-24 05:43:00,SystemResetWarning,0830.3,5.00,000.00,020.1,019.2,000.0,028.6,021.8,08.7,0000.0,0002.10,0000.70,0000.51
2024-02-24 05:44:00,SystemResetWarning,0830.3,5.00,000.00,020.1,019.2,000.0,028.6,021.8,08.7,0000.0,0002.07,0000.69,0000.51
2024-02-24 05:45:00,SystemResetWarning,0830.4,5.01,000.00,020.0,019.1,000.0,028.6,021.7,08.7,0000.0,0002.11,0000.70,0000.50
2024-02-24 05:46:00,SystemResetWarning,0830.4,5.01,000.00,020.0,019.1,000.0,028.6,021.7,08.8,0000.0,0002.02,0000.70,0000.50
2024-02-24 05:47:00,SystemResetWarning,0830.3,5.00,000.00,020.0,019.1,000.0,028.5,021.7,08.8,0000.0,0001.07,0000.69,0000.51
2024-02-24 05:48:00,SystemResetWarning,0830.3,5.00,000.00,020.0,019.1,000.0,028.5,021.6,08.7,0000.0,0001.13,0000.71,0000.52
2024-02-24 05:49:00,SystemResetWarning,0830.3,5.00,000.00,020.0,019.1,000.0,028.5,021.6,08.7,0000.0,0001.14,0000.71,0000.53
2024-02-24 05:50:00,SystemResetWarning,0830.2,5.00,000.00,019.9,019.0,000.0,028.5,021.6,08.8,0000.0,0001.11,0000.70,0000.54
2024-02-24 05:51:00,SystemResetWarning,0830.2,5.00,000.00,019.9,019.0,000.0,028.5,021.6,08.9,0000.0,0001.06,0000.68,0000.53
2024-02-24 05:52:00,SystemResetWarning,0830.2,5.00,000.00,019.9,019.0,000.0,028.4,021.6,09.1,0000.0,0001.00,0000.65,0000.52
2024-02-24 05:53:00,SystemResetWarning,0830.3,5.00,000.00,019.9,019.0,000.0,028.4,021.6,09.2,0000.0,0000.96,0000.64,0000.51
2024-02-24 05:54:00,SystemResetWarning,0830.2,5.00,000.00,019.9,019.0,000.0,028.4,021.5,09.1,0000.0,0000.92,0000.62,0000.51
2024-02-24 05:55:00,SystemResetWarning,0830.2,5.00,000.00,019.9,018.9,000.0,028.4,021.5,09.0,0000.0,0000.96,0000.64,0000.51
2024-02-24 05:56:00,SystemResetWarning,0830.3,5.00,000.00,019.8,018.9,000.0,028.4,021.5,08.8,0000.0,0000.91,0000.63,0000.51
2024-02-24 05:57:00,SystemResetWarning,0830.2,5.01,000.00,019.8,018.9,000.0,028.4,021.5,08.9,0000.0,0000.91,0000.63,0000.51
2024-02-24 05:58:00,SystemResetWarning,0830.2,5.00,000.00,019.8,018.9,000.0,028.3,021.5,08.9,0000.0,0000.89,0000.62,0000.51
2024-02-24 05:59:00,SystemResetWarning,0830.2,5.00,000.00,019.8,018.9,000.0,028.3,021.4,08.8,0000.0,0000.84,0000.60,0000.50
